Regional Weather Roundup
Issued by NWS Charleston, WV

Home | Current Version | Previous Version | Text Only | Print | Product List | Glossary Off
Versions: 1 2 3 4 5 6 7 8 9 10 11 12 13 14 15 16 17 18 19 20 21 22 23 24 25 26 27

000
ASUS41 KRLX 240410
RWRRLX
West Virginia Regional Weather Roundup
National Weather Service Charleston WV
1200 AM EDT THU APR 24 2014

Note: "fair" indicates few or no clouds below 12,000 feet with no
significant weather and/or obstructions to visibility.

WVZ003-240500-
Northern Panhandle of West Virginia

CITY           SKY/WX    TMP DP  RH WIND       PRES   REMARKS
WHEELING       CLEAR     39  25  57 NW6       30.11R
$$

WVZ009-240500-
Northwest West Virginia

CITY           SKY/WX    TMP DP  RH WIND       PRES   REMARKS
PARKERSBURG    CLEAR     45  30  55 N5        30.14R
$$

WVZ006-240500-
Western West Virginia

CITY           SKY/WX    TMP DP  RH WIND       PRES   REMARKS
HUNTINGTON     CLEAR     50  32  50 NE10      30.07S
$$

WVZ015-240500-
West Central West Virginia

CITY           SKY/WX    TMP DP  RH WIND       PRES   REMARKS
CHARLESTON     CLEAR     48  34  58 NE3       30.08R
$$

WVZ031-240500-
North Central West Virginia

CITY           SKY/WX    TMP DP  RH WIND       PRES   REMARKS
CLARKSBURG     CLEAR     41  29  62 N7        30.09S
MORGANTOWN     CLEAR     43  29  57 CALM      30.10R
$$

WVZ035-042-045-240500-
South Central West Virginia

CITY           SKY/WX    TMP DP  RH WIND       PRES   REMARKS
BECKLEY        CLEAR     45  28  51 N5        30.06R
BLUEFIELD      CLEAR     49  26  41 N3        30.06R
LEWISBURG      CLEAR     44  26  50 N3        30.05S
$$

WVZ047-240500-
Northern Mountains of West Virginia

CITY           SKY/WX    TMP DP  RH WIND       PRES   REMARKS
ELKINS         CLEAR     40  28  62 NW5       30.08R
$$

WVZ052-240500-
Eastern Panhandle of West Virginia

CITY           SKY/WX    TMP DP  RH WIND       PRES   REMARKS
MARTINSBURG    CLEAR     46  27  47 NW5       30.03R
PETERSBURG     CLEAR     49  35  58 N6        30.07S
$$



USA.gov is the U.S. government's official web portal to all federal, state and local government web resources and services.